ENY4124 KELP-KDFW

Flight info

Callsign ENY4124
Flight time N/A
Altitude 33000
Route TDOWN3 SFL INK GEEKY BOOVE7
Aircraft E75L/M-SDE3GILORVW/S

Departure

Time 2026-04-28 01:14
Airport El Paso International Airport (KELP)

Arrival

Time N/A
Airport Dallas Fort Worth International Airport (KDFW)
Time Latitude Longitude Altitude Speed Heading
2026-04-28 00:57 31.80076 -106.39615 3961 ft 0 kts 196°
2026-04-28 01:05 31.80086 -106.39612 3961 ft 2 kts 195°
2026-04-28 01:05 31.80102 -106.39607 3962 ft 2 kts 194°
2026-04-28 01:05 31.80118 -106.39602 3962 ft 2 kts 192°
2026-04-28 01:05 31.80134 -106.39600 3963 ft 2 kts 162°
2026-04-28 01:06 31.80146 -106.39612 3962 ft 2 kts 122°
2026-04-28 01:06 31.80152 -106.39629 3961 ft 1 kts 103°
2026-04-28 01:06 31.80153 -106.39633 3962 ft 0 kts 99°
2026-04-28 01:08 31.80153 -106.39624 3961 ft 4 kts 81°
2026-04-28 01:08 31.80189 -106.39591 3965 ft 10 kts 21°
2026-04-28 01:08 31.80237 -106.39544 3964 ft 13 kts 86°
2026-04-28 01:09 31.80230 -106.39393 3957 ft 23 kts 94°
2026-04-28 01:09 31.80250 -106.39303 3953 ft 14 kts 44°
2026-04-28 01:09 31.80349 -106.39196 3950 ft 24 kts 43°
2026-04-28 01:09 31.80493 -106.39037 3948 ft 30 kts 44°
2026-04-28 01:10 31.80644 -106.38871 3949 ft 30 kts 43°
2026-04-28 01:10 31.80789 -106.38712 3953 ft 29 kts 43°
2026-04-28 01:10 31.80922 -106.38540 3954 ft 28 kts 50°
2026-04-28 01:10 31.81053 -106.38357 3950 ft 30 kts 50°
2026-04-28 01:11 31.81190 -106.38166 3946 ft 31 kts 51°
2026-04-28 01:11 31.81333 -106.37966 3944 ft 32 kts 50°
2026-04-28 01:11 31.81479 -106.37763 3943 ft 32 kts 48°
2026-04-28 01:11 31.81621 -106.37564 3943 ft 32 kts 51°
2026-04-28 01:12 31.81765 -106.37363 3940 ft 33 kts 50°
2026-04-28 01:12 31.81915 -106.37153 3936 ft 34 kts 51°
2026-04-28 01:12 31.82041 -106.36977 3932 ft 27 kts 50°
2026-04-28 01:12 31.82133 -106.36882 3932 ft 14 kts
2026-04-28 01:13 31.82214 -106.36942 3932 ft 14 kts 319°
2026-04-28 01:13 31.82146 -106.37213 3932 ft 54 kts 230°
2026-04-28 01:13 31.81750 -106.37766 3944 ft 121 kts 229°
2026-04-28 01:14 31.81090 -106.38679 4180 ft 164 kts 229°
2026-04-28 01:14 31.80274 -106.39753 4905 ft 184 kts 228°
2026-04-28 01:14 31.79173 -106.40606 5683 ft 201 kts 200°
2026-04-28 01:14 31.77737 -106.40777 6466 ft 219 kts 181°
2026-04-28 01:15 31.76183 -106.40358 7089 ft 245 kts 161°
2026-04-28 01:15 31.74690 -106.39121 7554 ft 286 kts 134°
2026-04-28 01:15 31.73736 -106.36943 8216 ft 311 kts 112°
2026-04-28 01:15 31.73077 -106.34500 9285 ft 318 kts 110°
2026-04-28 01:16 31.72485 -106.31952 10215 ft 329 kts 104°
2026-04-28 01:16 31.72318 -106.30133 10565 ft 347 kts 93°
2026-04-28 01:16 31.72428 -106.27242 11306 ft 360 kts 88°
2026-04-28 01:16 31.72640 -106.24292 12232 ft 366 kts 82°
2026-04-28 01:17 31.73981 -106.20630 13458 ft 374 kts 57°
2026-04-28 01:17 31.75403 -106.18031 14304 ft 382 kts 57°
2026-04-28 01:17 31.76835 -106.15368 15148 ft 390 kts 57°
2026-04-28 01:17 31.78282 -106.12640 15992 ft 396 kts 59°
2026-04-28 01:18 31.79086 -106.10650 16532 ft 401 kts 72°
2026-04-28 01:18 31.79596 -106.07432 17305 ft 403 kts 92°
2026-04-28 01:18 31.79456 -106.04135 18071 ft 406 kts 98°
2026-04-28 01:18 31.79284 -106.00800 18717 ft 413 kts 97°
2026-04-28 01:19 31.79178 -105.97402 19326 ft 419 kts 96°
2026-04-28 01:19 31.79100 -105.93958 20001 ft 424 kts 96°
2026-04-28 01:19 31.79032 -105.90473 20690 ft 429 kts 96°
2026-04-28 01:19 31.78969 -105.86999 21357 ft 434 kts 96°
2026-04-28 01:20 31.78903 -105.83434 21998 ft 439 kts 96°
2026-04-28 01:20 31.78834 -105.79831 22614 ft 443 kts 96°
2026-04-28 01:20 31.78761 -105.76188 23202 ft 448 kts 96°
2026-04-28 01:20 31.78684 -105.72510 23694 ft 453 kts 96°
2026-04-28 01:21 31.78599 -105.68798 24152 ft 456 kts 97°
2026-04-28 01:21 31.78402 -105.65068 24609 ft 459 kts 99°
2026-04-28 01:21 31.78159 -105.61307 25079 ft 463 kts 99°
2026-04-28 01:21 31.77921 -105.57517 25537 ft 468 kts 99°
2026-04-28 01:22 31.77688 -105.53683 26002 ft 472 kts 99°
2026-04-28 01:22 31.77456 -105.49818 26441 ft 477 kts 99°
2026-04-28 01:22 31.77224 -105.45909 26872 ft 481 kts 99°
2026-04-28 01:22 31.76990 -105.41974 27295 ft 485 kts 99°
2026-04-28 01:23 31.76753 -105.38001 27688 ft 490 kts 99°
2026-04-28 01:23 31.76513 -105.33992 28101 ft 493 kts 99°
2026-04-28 01:23 31.76270 -105.29958 28494 ft 497 kts 99°
2026-04-28 01:23 31.76023 -105.25881 28824 ft 503 kts 99°
2026-04-28 01:24 31.75772 -105.21760 29192 ft 507 kts 99°
2026-04-28 01:24 31.75520 -105.17618 29555 ft 511 kts 99°
2026-04-28 01:24 31.75265 -105.13446 29909 ft 514 kts 99°
2026-04-28 01:24 31.75018 -105.09246 30227 ft 518 kts 96°
2026-04-28 01:25 31.75106 -105.04987 30522 ft 525 kts 88°
2026-04-28 01:25 31.75456 -105.00712 30843 ft 527 kts 87°
2026-04-28 01:25 31.75819 -104.96414 31138 ft 530 kts 87°
2026-04-28 01:25 31.76165 -104.92091 31446 ft 532 kts 87°
2026-04-28 01:26 31.76501 -104.87726 31642 ft 537 kts 87°
2026-04-28 01:26 31.76832 -104.83345 31930 ft 540 kts 87°
2026-04-28 01:26 31.77159 -104.78948 32281 ft 540 kts 87°
2026-04-28 01:26 31.77479 -104.74607 32671 ft 540 kts 86°
2026-04-28 01:27 31.77800 -104.70212 32893 ft 544 kts 86°
2026-04-28 01:27 31.78125 -104.65750 32894 ft 552 kts 86°
2026-04-28 01:27 31.78781 -104.56662 32813 ft 561 kts 86°
2026-04-28 01:28 31.79435 -104.47519 32788 ft 562 kts 87°
2026-04-28 01:28 31.80085 -104.38348 32782 ft 563 kts 87°
2026-04-28 01:29 31.80727 -104.29179 32775 ft 562 kts 87°
2026-04-28 01:29 31.81362 -104.20004 32760 ft 563 kts 86°
2026-04-28 01:30 31.81992 -104.10817 32772 ft 564 kts 86°
2026-04-28 01:30 31.82616 -104.01631 32756 ft 563 kts 86°
2026-04-28 01:31 31.83233 -103.92450 32749 ft 563 kts 86°
2026-04-28 01:31 31.83843 -103.83268 32746 ft 562 kts 86°
2026-04-28 01:32 31.84446 -103.74106 32746 ft 562 kts 87°
2026-04-28 01:32 31.85040 -103.64943 32744 ft 562 kts 87°
2026-04-28 01:33 31.85629 -103.55778 32751 ft 562 kts 87°
2026-04-28 01:33 31.86212 -103.46603 32729 ft 565 kts 87°
2026-04-28 01:34 31.86791 -103.37394 32750 ft 565 kts 87°
2026-04-28 01:34 31.87364 -103.28173 32758 ft 565 kts 87°
2026-04-28 01:35 31.88269 -103.18999 32777 ft 565 kts 81°
2026-04-28 01:35 31.89511 -103.09857 32762 ft 566 kts 81°
2026-04-28 01:36 31.90736 -103.00707 32772 ft 566 kts 81°
2026-04-28 01:36 31.91946 -102.91550 32781 ft 566 kts 81°
2026-04-28 01:37 31.93145 -102.82400 32780 ft 566 kts 81°
2026-04-28 01:37 31.94330 -102.73306 32828 ft 564 kts 81°
2026-04-28 01:38 31.95515 -102.64168 32856 ft 564 kts 81°
2026-04-28 01:38 31.96692 -102.55028 32892 ft 564 kts 81°
2026-04-28 01:39 31.97863 -102.45889 32918 ft 564 kts 82°
2026-04-28 01:39 31.99027 -102.36743 32910 ft 566 kts 81°
2026-04-28 01:40 32.00187 -102.27582 32908 ft 565 kts 81°
2026-04-28 01:40 32.01341 -102.18421 32918 ft 565 kts 81°
2026-04-28 01:41 32.02487 -102.09257 32917 ft 565 kts 81°
2026-04-28 01:41 32.03628 -102.00079 32921 ft 566 kts 81°
2026-04-28 01:42 32.04762 -101.90904 32882 ft 566 kts 81°
2026-04-28 01:42 32.05892 -101.81716 32845 ft 566 kts 81°
2026-04-28 01:43 32.07013 -101.72534 32854 ft 566 kts 81°
2026-04-28 01:43 32.08119 -101.63414 32891 ft 565 kts 81°
2026-04-28 01:44 32.09230 -101.54212 32906 ft 567 kts 81°
2026-04-28 01:44 32.10335 -101.44992 32899 ft 567 kts 81°
2026-04-28 01:45 32.11436 -101.35768 32878 ft 568 kts 81°
2026-04-28 01:45 32.12532 -101.26555 32837 ft 566 kts 81°
2026-04-28 01:46 32.13621 -101.17358 32780 ft 566 kts 81°
2026-04-28 01:46 32.14703 -101.08161 32778 ft 566 kts 81°
2026-04-28 01:47 32.15780 -100.98949 32781 ft 566 kts 81°
2026-04-28 01:47 32.16851 -100.89738 32778 ft 566 kts 81°
2026-04-28 01:48 32.17914 -100.80522 32777 ft 567 kts 81°
2026-04-28 01:48 32.18965 -100.71367 32781 ft 567 kts 81°
2026-04-28 01:49 32.20014 -100.62147 32776 ft 567 kts 81°
2026-04-28 01:49 32.21055 -100.52953 32795 ft 561 kts 81°
2026-04-28 01:50 32.22077 -100.43819 32786 ft 561 kts 82°
2026-04-28 01:50 32.23092 -100.34685 32781 ft 561 kts 81°
2026-04-28 01:51 32.24115 -100.25547 32786 ft 561 kts 82°
2026-04-28 01:51 32.25125 -100.16407 32783 ft 558 kts 81°
2026-04-28 01:52 32.26123 -100.07303 32789 ft 558 kts 81°
2026-04-28 01:52 32.27113 -99.98209 32784 ft 558 kts 81°
2026-04-28 01:53 32.28078 -99.89100 32788 ft 558 kts 82°
2026-04-28 01:53 32.28604 -99.79952 32798 ft 558 kts 87°
2026-04-28 01:54 32.28994 -99.70789 32790 ft 559 kts 86°
2026-04-28 01:54 32.29444 -99.61637 32800 ft 558 kts 86°
2026-04-28 01:55 32.29904 -99.52543 32802 ft 558 kts 86°
2026-04-28 01:55 32.30366 -99.43399 32803 ft 556 kts 86°
2026-04-28 01:56 32.30822 -99.34275 32807 ft 556 kts 86°
2026-04-28 01:56 32.31271 -99.25139 32806 ft 557 kts 86°
2026-04-28 01:57 32.31715 -99.16012 32808 ft 556 kts 86°
2026-04-28 01:57 32.32152 -99.06879 32811 ft 556 kts 86°
2026-04-28 01:58 32.32582 -98.97746 32808 ft 556 kts 86°
2026-04-28 01:58 32.33012 -98.88610 32814 ft 556 kts 86°
2026-04-28 01:59 32.33438 -98.79478 32810 ft 556 kts 86°
2026-04-28 01:59 32.33856 -98.70351 32377 ft 553 kts 86°
2026-04-28 02:00 32.34061 -98.65835 31899 ft 552 kts 87°
2026-04-28 02:00 32.34266 -98.61292 31269 ft 552 kts 87°
2026-04-28 02:00 32.34464 -98.56816 30662 ft 552 kts 87°
2026-04-28 02:00 32.34664 -98.52288 30027 ft 550 kts 87°
2026-04-28 02:01 32.34862 -98.47793 29393 ft 543 kts 87°
2026-04-28 02:01 32.35054 -98.43365 28786 ft 536 kts 87°
2026-04-28 02:01 32.35243 -98.38997 28212 ft 528 kts 87°
2026-04-28 02:01 32.35428 -98.34676 27629 ft 522 kts 87°
2026-04-28 02:02 32.35610 -98.30416 27069 ft 514 kts 88°
2026-04-28 02:02 32.35784 -98.26216 26477 ft 508 kts 88°
2026-04-28 02:02 32.35954 -98.22067 25931 ft 502 kts 88°
2026-04-28 02:02 32.36120 -98.17961 25379 ft 497 kts 88°
2026-04-28 02:03 32.36284 -98.13894 24837 ft 492 kts 88°
2026-04-28 02:03 32.36445 -98.09875 24302 ft 487 kts 88°
2026-04-28 02:03 32.36603 -98.05891 23772 ft 482 kts 88°
2026-04-28 02:03 32.36759 -98.01950 23204 ft 477 kts 88°
2026-04-28 02:04 32.36911 -97.98067 22724 ft 470 kts 88°
2026-04-28 02:04 32.37060 -97.94224 22201 ft 465 kts 88°
2026-04-28 02:04 32.37157 -97.91704 21865 ft 461 kts 88°
2026-04-28 02:04 32.37302 -97.87933 21352 ft 457 kts 88°
2026-04-28 02:05 32.37448 -97.84192 20876 ft 453 kts 89°
2026-04-28 02:05 32.37592 -97.80473 20350 ft 451 kts 89°
2026-04-28 02:05 32.37735 -97.76791 19856 ft 446 kts 89°
2026-04-28 02:05 32.37873 -97.73142 19363 ft 442 kts 89°
2026-04-28 02:06 32.38011 -97.69523 18884 ft 438 kts 89°
2026-04-28 02:06 32.38148 -97.65951 18398 ft 430 kts 88°
2026-04-28 02:06 32.38754 -97.62533 17895 ft 422 kts 66°
2026-04-28 02:06 32.40314 -97.59686 17504 ft 407 kts 44°
2026-04-28 02:07 32.42362 -97.57448 17286 ft 398 kts 37°
2026-04-28 02:07 32.44445 -97.55241 16854 ft 403 kts 39°
2026-04-28 02:07 32.46502 -97.52995 16513 ft 401 kts 39°
2026-04-28 02:07 32.48534 -97.50734 16227 ft 400 kts 40°
2026-04-28 02:08 32.50551 -97.48462 15941 ft 400 kts 40°
2026-04-28 02:08 32.52555 -97.46189 15681 ft 398 kts 40°
2026-04-28 02:08 32.54549 -97.43919 15399 ft 396 kts 40°
2026-04-28 02:08 32.56521 -97.41666 15105 ft 390 kts 41°
2026-04-28 02:09 32.58460 -97.39446 14729 ft 384 kts 41°
2026-04-28 02:09 32.60367 -97.37263 14395 ft 379 kts 41°
2026-04-28 02:09 32.62254 -97.35101 13959 ft 374 kts 41°
2026-04-28 02:09 32.64108 -97.32972 13569 ft 368 kts 41°
2026-04-28 02:10 32.65927 -97.30882 13211 ft 360 kts 41°
2026-04-28 02:10 32.67696 -97.28849 12963 ft 349 kts 40°
2026-04-28 02:10 32.69413 -97.26873 12716 ft 340 kts 40°
2026-04-28 02:10 32.71083 -97.24954 12567 ft 328 kts 40°
2026-04-28 02:11 32.72699 -97.23093 12435 ft 320 kts 40°
2026-04-28 02:11 32.74298 -97.21256 12295 ft 318 kts 40°
2026-04-28 02:11 32.75863 -97.19452 12126 ft 309 kts 39°
2026-04-28 02:11 32.77392 -97.17709 11924 ft 300 kts 34°
2026-04-28 02:12 32.79153 -97.16644 11782 ft 272 kts
2026-04-28 02:12 32.80965 -97.16512 11734 ft 255 kts 350°
2026-04-28 02:12 32.82708 -97.16586 11685 ft 255 kts 349°
2026-04-28 02:12 32.84514 -97.16636 11641 ft 257 kts 351°
2026-04-28 02:13 32.86289 -97.16649 11561 ft 260 kts 352°
2026-04-28 02:13 32.88100 -97.16648 11475 ft 260 kts 352°
2026-04-28 02:13 32.89909 -97.16633 11382 ft 260 kts 352°
2026-04-28 02:13 32.91714 -97.16618 11288 ft 259 kts 352°
2026-04-28 02:14 32.93513 -97.16597 11207 ft 258 kts 352°
2026-04-28 02:14 32.95307 -97.16577 11137 ft 257 kts 352°
2026-04-28 02:14 32.97097 -97.16554 11021 ft 257 kts 353°
2026-04-28 02:14 32.98884 -97.16531 10873 ft 257 kts 352°
2026-04-28 02:15 33.02465 -97.16490 10460 ft 256 kts 353°
2026-04-28 02:15 33.04243 -97.16470 10204 ft 256 kts 353°
2026-04-28 02:15 33.06018 -97.16450 10022 ft 251 kts 353°